Time,TemperatureF,DewpointF,PressureIn,WindDirection,WindDirectionDegrees,WindSpeedMPH,WindSpeedGustMPH,Humidity,HourlyPrecipIn,Conditions,Clouds,dailyrainin,SoftwareType,DateUTC
2013-02-17 00:02:00,36.0,22.7,30.31,NNW,340,0.0,0.0,58,0.00,,---,0.00,VWS V14.01,2013-02-17 06:02:00,
2013-02-17 00:07:00,36.0,22.7,30.31,NE,52,0.0,1.0,58,0.00,,---,0.00,VWS V14.01,2013-02-17 06:07:00,
2013-02-17 00:12:00,35.9,23.0,30.30,NE,39,1.0,1.0,59,0.00,,---,0.00,VWS V14.01,2013-02-17 06:12:00,
2013-02-17 00:17:00,35.8,22.9,30.30,NNW,345,0.0,1.0,59,0.00,,---,0.00,VWS V14.01,2013-02-17 06:17:00,
2013-02-17 00:23:00,35.6,22.7,30.30,NW,311,0.0,0.0,59,0.00,,---,0.00,VWS V14.01,2013-02-17 06:23:00,
2013-02-17 00:28:00,35.4,22.9,30.30,NNW,343,1.0,2.0,60,0.00,,---,0.00,VWS V14.01,2013-02-17 06:28:00,
2013-02-17 00:33:00,35.3,22.8,30.30,North,6,0.0,0.0,60,0.00,,---,0.00,VWS V14.01,2013-02-17 06:33:00,
2013-02-17 00:38:00,35.0,22.9,30.30,North,6,0.0,0.0,61,0.00,,---,0.00,VWS V14.01,2013-02-17 06:38:00,
2013-02-17 00:44:00,34.9,22.4,30.30,North,352,0.0,0.0,60,0.00,,---,0.00,VWS V14.01,2013-02-17 06:44:00,
2013-02-17 00:49:00,34.7,22.6,30.30,North,354,1.0,2.0,61,0.00,,---,0.00,VWS V14.01,2013-02-17 06:49:00,
2013-02-17 00:54:00,34.7,22.6,30.31,North,354,0.0,0.0,61,0.00,,---,0.00,VWS V14.01,2013-02-17 06:54:00,
2013-02-17 00:59:00,34.5,23.2,30.30,North,354,0.0,0.0,63,0.00,,---,0.00,VWS V14.01,2013-02-17 06:59:00,
2013-02-17 01:04:00,34.2,22.9,30.31,North,354,0.0,0.0,63,0.00,,---,0.00,VWS V14.01,2013-02-17 07:04:00,
2013-02-17 01:09:00,33.9,23.0,30.30,North,354,0.0,0.0,64,0.00,,---,0.00,VWS V14.01,2013-02-17 07:09:00,
2013-02-17 01:14:00,33.5,23.0,30.30,North,354,0.0,0.0,65,0.00,,---,0.00,VWS V14.01,2013-02-17 07:14:00,
2013-02-17 01:20:00,33.1,22.6,30.31,North,354,0.0,0.0,65,0.00,,---,0.00,VWS V14.01,2013-02-17 07:20:00,
2013-02-17 01:26:00,32.8,23.1,30.31,North,354,0.0,0.0,67,0.00,,---,0.00,VWS V14.01,2013-02-17 07:26:00,
2013-02-17 01:31:00,32.6,22.9,30.31,North,354,0.0,0.0,67,0.00,,---,0.00,VWS V14.01,2013-02-17 07:31:00,
2013-02-17 01:37:00,32.5,23.1,30.31,North,354,0.0,0.0,68,0.00,,---,0.00,VWS V14.01,2013-02-17 07:37:00,
2013-02-17 01:42:00,32.3,22.9,30.31,North,353,0.0,0.0,68,0.00,,---,0.00,VWS V14.01,2013-02-17 07:42:00,
2013-02-17 01:47:00,32.2,22.8,30.31,North,353,0.0,0.0,68,0.00,,---,0.00,VWS V14.01,2013-02-17 07:47:00,
2013-02-17 01:52:00,32.1,23.1,30.31,North,354,0.0,0.0,69,0.00,,---,0.00,VWS V14.01,2013-02-17 07:52:00,
2013-02-17 01:57:00,32.0,23.0,30.31,North,354,0.0,0.0,69,0.00,,---,0.00,VWS V14.01,2013-02-17 07:57:00,
2013-02-17 02:02:00,32.0,23.0,30.31,North,354,0.0,0.0,69,0.00,,---,0.00,VWS V14.01,2013-02-17 08:02:00,
2013-02-17 02:07:00,32.1,23.1,30.31,North,354,0.0,0.0,69,0.00,,---,0.00,VWS V14.01,2013-02-17 08:07:00,
2013-02-17 02:12:00,32.0,23.0,30.31,North,354,0.0,0.0,69,0.00,,---,0.00,VWS V14.01,2013-02-17 08:12:00,
2013-02-17 02:18:00,31.9,22.9,30.31,North,354,0.0,0.0,69,0.00,,---,0.00,VWS V14.01,2013-02-17 08:18:00,
2013-02-17 02:24:00,31.9,23.2,30.31,North,354,0.0,0.0,70,0.00,,---,0.00,VWS V14.01,2013-02-17 08:24:00,
2013-02-17 02:29:00,31.8,23.1,30.31,North,354,0.0,0.0,70,0.00,,---,0.00,VWS V14.01,2013-02-17 08:29:00,
2013-02-17 02:34:00,31.8,23.1,30.31,North,354,0.0,0.0,70,0.00,,---,0.00,VWS V14.01,2013-02-17 08:34:00,
2013-02-17 02:39:00,31.8,23.1,30.31,North,354,0.0,1.0,70,0.00,,---,0.00,VWS V14.01,2013-02-17 08:39:00,
2013-02-17 02:44:00,31.7,23.0,30.31,North,354,0.0,0.0,70,0.00,,---,0.00,VWS V14.01,2013-02-17 08:44:00,
2013-02-17 02:49:00,31.6,23.3,30.31,North,354,0.0,0.0,71,0.00,,---,0.00,VWS V14.01,2013-02-17 08:49:00,
2013-02-17 02:50:00,31.6,23.3,30.31,North,354,0.0,0.0,71,0.00,,---,0.00,VWS V14.01,2013-02-17 08:50:00,
2013-02-17 02:56:00,31.4,23.4,30.31,North,354,0.0,0.0,72,0.00,,---,0.00,VWS V14.01,2013-02-17 08:56:00,
2013-02-17 03:01:00,31.2,23.2,30.31,North,354,0.0,0.0,72,0.00,,---,0.00,VWS V14.01,2013-02-17 09:01:00,
2013-02-17 03:06:00,31.1,23.5,30.31,North,354,0.0,0.0,73,0.00,,---,0.00,VWS V14.01,2013-02-17 09:06:00,
2013-02-17 03:11:00,31.2,23.2,30.31,North,354,0.0,0.0,72,0.00,,---,0.00,VWS V14.01,2013-02-17 09:11:00,
2013-02-17 03:16:00,31.2,23.2,30.31,North,354,0.0,0.0,72,0.00,,---,0.00,VWS V14.01,2013-02-17 09:16:00,
2013-02-17 03:22:00,31.0,23.4,30.31,North,354,0.0,0.0,73,0.00,,---,0.00,VWS V14.01,2013-02-17 09:22:00,
2013-02-17 03:27:00,30.9,23.3,30.31,North,354,0.0,0.0,73,0.00,,---,0.00,VWS V14.01,2013-02-17 09:27:00,
2013-02-17 03:33:00,30.8,23.2,30.31,North,354,0.0,0.0,73,0.00,,---,0.00,VWS V14.01,2013-02-17 09:33:00,
2013-02-17 03:38:00,30.9,23.3,30.32,North,355,0.0,0.0,73,0.00,,---,0.00,VWS V14.01,2013-02-17 09:38:00,
2013-02-17 03:43:00,31.0,23.4,30.32,North,355,0.0,0.0,73,0.00,,---,0.00,VWS V14.01,2013-02-17 09:43:00,
2013-02-17 03:48:00,31.1,23.1,30.32,North,355,0.0,0.0,72,0.00,,---,0.00,VWS V14.01,2013-02-17 09:48:00,
2013-02-17 03:53:00,30.9,23.3,30.32,North,355,0.0,0.0,73,0.00,,---,0.00,VWS V14.01,2013-02-17 09:53:00,
2013-02-17 03:58:00,30.5,23.2,30.32,North,355,0.0,0.0,74,0.00,,---,0.00,VWS V14.01,2013-02-17 09:58:00,
2013-02-17 04:03:00,30.1,23.5,30.32,North,356,0.0,0.0,76,0.00,,---,0.00,VWS V14.01,2013-02-17 10:03:00,
2013-02-17 04:08:00,30.0,23.4,30.32,North,355,0.0,0.0,76,0.00,,---,0.00,VWS V14.01,2013-02-17 10:08:00,
2013-02-17 04:13:00,30.0,23.4,30.32,North,355,0.0,0.0,76,0.00,,---,0.00,VWS V14.01,2013-02-17 10:13:00,
2013-02-17 04:19:00,30.1,23.5,30.32,NNE,15,0.0,0.0,76,0.00,,---,0.00,VWS V14.01,2013-02-17 10:19:00,
2013-02-17 04:25:00,30.2,23.6,30.32,NNE,15,0.0,0.0,76,0.00,,---,0.00,VWS V14.01,2013-02-17 10:25:00,
2013-02-17 04:30:00,30.2,23.2,30.33,NNE,14,0.0,1.0,75,0.00,,---,0.00,VWS V14.01,2013-02-17 10:30:00,
2013-02-17 04:35:00,30.3,23.3,30.33,NNE,14,0.0,0.0,75,0.00,,---,0.00,VWS V14.01,2013-02-17 10:35:00,
2013-02-17 04:40:00,30.3,23.3,30.33,NNE,14,0.0,0.0,75,0.00,,---,0.00,VWS V14.01,2013-02-17 10:40:00,
2013-02-17 04:45:00,30.2,23.2,30.33,NNE,15,0.0,0.0,75,0.00,,---,0.00,VWS V14.01,2013-02-17 10:45:00,
2013-02-17 04:50:00,30.1,23.5,30.33,NNE,14,0.0,0.0,76,0.00,,---,0.00,VWS V14.01,2013-02-17 10:50:00,
2013-02-17 04:55:00,30.2,23.6,30.33,NNE,15,0.0,0.0,76,0.00,,---,0.00,VWS V14.01,2013-02-17 10:55:00,
2013-02-17 05:00:00,30.2,23.6,30.33,NNE,15,0.0,0.0,76,0.00,,---,0.00,VWS V14.01,2013-02-17 11:00:00,
2013-02-17 05:05:00,30.0,23.4,30.33,NNE,14,0.0,0.0,76,0.00,,---,0.00,VWS V14.01,2013-02-17 11:05:00,
2013-02-17 05:10:00,29.8,23.2,30.33,NNE,15,0.0,0.0,76,0.00,,---,0.00,VWS V14.01,2013-02-17 11:10:00,
2013-02-17 05:15:00,29.7,23.4,30.33,NNE,15,0.0,0.0,77,0.00,,---,0.00,VWS V14.01,2013-02-17 11:15:00,
2013-02-17 05:20:00,29.6,23.3,30.33,NNE,15,0.0,0.0,77,0.00,,---,0.00,VWS V14.01,2013-02-17 11:20:00,
2013-02-17 05:25:00,29.5,23.8,30.33,NNE,15,0.0,0.0,79,0.00,,---,0.00,VWS V14.01,2013-02-17 11:25:00,
2013-02-17 05:30:00,29.2,23.5,30.33,NNE,15,0.0,0.0,79,0.00,,---,0.00,VWS V14.01,2013-02-17 11:30:00,
2013-02-17 05:35:00,29.0,23.6,30.33,NNE,14,0.0,0.0,80,0.00,,---,0.00,VWS V14.01,2013-02-17 11:35:00,
2013-02-17 05:40:00,28.7,23.3,30.34,NNE,15,0.0,0.0,80,0.00,,---,0.00,VWS V14.01,2013-02-17 11:40:00,
2013-02-17 05:45:00,28.5,23.4,30.34,NNE,15,0.0,0.0,81,0.00,,---,0.00,VWS V14.01,2013-02-17 11:45:00,
2013-02-17 05:50:00,28.4,23.0,30.34,NNE,15,0.0,0.0,80,0.00,,---,0.00,VWS V14.01,2013-02-17 11:50:00,
2013-02-17 05:55:00,28.2,22.8,30.34,NNE,14,0.0,0.0,80,0.00,,---,0.00,VWS V14.01,2013-02-17 11:55:00,
2013-02-17 06:00:00,28.1,23.0,30.34,NNE,15,0.0,0.0,81,0.00,,---,0.00,VWS V14.01,2013-02-17 12:00:00,
2013-02-17 06:05:00,27.9,23.1,30.34,NNE,15,0.0,0.0,82,0.00,,---,0.00,VWS V14.01,2013-02-17 12:05:00,
2013-02-17 06:10:00,27.7,22.9,30.34,NNE,16,0.0,0.0,82,0.00,,---,0.00,VWS V14.01,2013-02-17 12:10:00,
2013-02-17 06:15:00,27.6,23.1,30.34,NNE,15,0.0,0.0,83,0.00,,---,0.00,VWS V14.01,2013-02-17 12:15:00,
2013-02-17 06:20:00,27.4,22.9,30.34,NNE,15,0.0,0.0,83,0.00,,---,0.00,VWS V14.01,2013-02-17 12:20:00,
2013-02-17 06:25:00,27.3,23.1,30.34,NNE,15,0.0,0.0,84,0.00,,---,0.00,VWS V14.01,2013-02-17 12:25:00,
2013-02-17 06:30:00,27.0,22.8,30.34,NNE,15,0.0,0.0,84,0.00,,---,0.00,VWS V14.01,2013-02-17 12:30:00,
2013-02-17 06:35:00,27.0,23.1,30.34,NNE,15,0.0,0.0,85,0.00,,---,0.00,VWS V14.01,2013-02-17 12:35:00,
2013-02-17 06:40:00,27.1,23.2,30.34,NNE,15,0.0,0.0,85,0.00,,---,0.00,VWS V14.01,2013-02-17 12:40:00,
2013-02-17 06:45:00,27.2,23.6,30.34,NNE,15,0.0,0.0,86,0.00,,---,0.00,VWS V14.01,2013-02-17 12:45:00,
2013-02-17 06:50:00,27.3,23.7,30.34,NNE,15,0.0,0.0,86,0.00,,---,0.00,VWS V14.01,2013-02-17 12:50:00,
2013-02-17 06:55:00,27.4,24.0,30.34,NNE,15,0.0,0.0,87,0.00,,---,0.00,VWS V14.01,2013-02-17 12:55:00,
2013-02-17 07:01:00,27.5,24.1,30.35,NNE,15,0.0,0.0,87,0.00,,---,0.00,VWS V14.01,2013-02-17 13:01:00,
2013-02-17 07:06:00,27.7,24.3,30.35,NNE,15,0.0,0.0,87,0.00,,---,0.00,VWS V14.01,2013-02-17 13:06:00,
2013-02-17 07:11:00,28.0,24.6,30.35,NNE,14,0.0,0.0,87,0.00,,---,0.00,VWS V14.01,2013-02-17 13:11:00,
2013-02-17 07:16:00,28.3,25.2,30.35,NNE,15,0.0,0.0,88,0.00,,---,0.00,VWS V14.01,2013-02-17 13:16:00,
2013-02-17 07:21:00,28.8,25.7,30.36,NNE,15,0.0,0.0,88,0.00,,---,0.00,VWS V14.01,2013-02-17 13:21:00,
2013-02-17 07:26:00,29.6,26.5,30.36,NNE,15,0.0,0.0,88,0.00,,---,0.00,VWS V14.01,2013-02-17 13:26:00,
2013-02-17 07:31:00,30.9,27.2,30.36,NNE,15,0.0,0.0,86,0.00,,---,0.00,VWS V14.01,2013-02-17 13:31:00,
2013-02-17 07:36:00,32.3,27.7,30.36,NNE,14,0.0,0.0,83,0.00,,---,0.00,VWS V14.01,2013-02-17 13:36:00,
2013-02-17 07:41:00,33.7,27.6,30.37,NE,49,0.0,1.0,78,0.00,,---,0.00,VWS V14.01,2013-02-17 13:41:00,
2013-02-17 07:46:00,35.3,26.9,30.37,ESE,104,2.0,3.0,71,0.00,,---,0.00,VWS V14.01,2013-02-17 13:46:00,
2013-02-17 07:51:00,36.5,26.6,30.37,ENE,70,2.0,3.0,67,0.00,,---,0.00,VWS V14.01,2013-02-17 13:51:00,
2013-02-17 07:56:00,37.3,26.3,30.38,ENE,70,1.0,3.0,64,0.00,,---,0.00,VWS V14.01,2013-02-17 13:56:00,
2013-02-17 08:01:00,38.0,25.8,30.37,East,97,3.0,4.0,61,0.00,,---,0.00,VWS V14.01,2013-02-17 14:01:00,
2013-02-17 08:06:00,38.6,25.1,30.38,NE,53,2.0,4.0,58,0.00,,---,0.00,VWS V14.01,2013-02-17 14:06:00,
2013-02-17 08:12:00,39.1,25.2,30.38,ENE,77,3.0,3.0,57,0.00,,---,0.00,VWS V14.01,2013-02-17 14:12:00,
2013-02-17 08:17:00,39.4,24.6,30.38,East,94,2.0,4.0,55,0.00,,---,0.00,VWS V14.01,2013-02-17 14:17:00,
2013-02-17 08:22:00,39.8,24.5,30.38,ENE,65,3.0,4.0,54,0.00,,---,0.00,VWS V14.01,2013-02-17 14:22:00,
2013-02-17 08:27:00,40.1,23.9,30.39,ESE,121,5.0,6.0,52,0.00,,---,0.00,VWS V14.01,2013-02-17 14:27:00,
2013-02-17 08:32:00,40.4,23.7,30.39,NE,38,2.0,3.0,51,0.00,,---,0.00,VWS V14.01,2013-02-17 14:32:00,
2013-02-17 08:37:00,40.4,23.7,30.39,ENE,76,1.0,3.0,51,0.00,,---,0.00,VWS V14.01,2013-02-17 14:37:00,
2013-02-17 08:42:00,40.8,23.1,30.39,NE,44,4.0,4.0,49,0.00,,---,0.00,VWS V14.01,2013-02-17 14:42:00,
2013-02-17 08:47:00,40.8,23.1,30.39,NE,52,1.0,4.0,49,0.00,,---,0.00,VWS V14.01,2013-02-17 14:47:00,
2013-02-17 08:52:00,41.0,23.3,30.39,ENE,58,2.0,6.0,49,0.00,,---,0.00,VWS V14.01,2013-02-17 14:52:00,
2013-02-17 08:57:00,41.2,23.5,30.39,East,96,1.0,2.0,49,0.00,,---,0.00,VWS V14.01,2013-02-17 14:57:00,
2013-02-17 09:02:00,41.7,24.5,30.39,SSE,148,1.0,2.0,50,0.00,,---,0.00,VWS V14.01,2013-02-17 15:02:00,
2013-02-17 09:07:00,42.0,24.2,30.39,SE,125,0.0,1.0,49,0.00,,---,0.00,VWS V14.01,2013-02-17 15:07:00,
2013-02-17 09:12:00,42.0,23.8,30.40,ENE,63,4.0,4.0,48,0.00,,---,0.00,VWS V14.01,2013-02-17 15:12:00,
2013-02-17 09:17:00,42.1,23.8,30.40,NE,45,2.0,2.0,48,0.00,,---,0.00,VWS V14.01,2013-02-17 15:17:00,
2013-02-17 09:22:00,42.1,23.3,30.40,East,93,1.0,2.0,47,0.00,,---,0.00,VWS V14.01,2013-02-17 15:22:00,
2013-02-17 09:27:00,42.6,23.3,30.40,South,190,0.0,1.0,46,0.00,,---,0.00,VWS V14.01,2013-02-17 15:27:00,
2013-02-17 09:32:00,43.3,22.9,30.39,SE,139,0.0,2.0,44,0.00,,---,0.00,VWS V14.01,2013-02-17 15:32:00,
2013-02-17 09:37:00,43.7,23.8,30.40,ESE,110,2.0,3.0,45,0.00,,---,0.00,VWS V14.01,2013-02-17 15:37:00,
2013-02-17 09:42:00,43.8,22.8,30.40,East,89,3.0,3.0,43,0.00,,---,0.00,VWS V14.01,2013-02-17 15:42:00,
2013-02-17 09:47:00,43.8,22.8,30.40,ESE,122,0.0,1.0,43,0.00,,---,0.00,VWS V14.01,2013-02-17 15:47:00,
2013-02-17 09:52:00,44.1,22.5,30.40,East,93,0.0,1.0,42,0.00,,---,0.00,VWS V14.01,2013-02-17 15:52:00,
2013-02-17 09:57:00,44.3,23.2,30.40,SE,124,3.0,3.0,43,0.00,,---,0.00,VWS V14.01,2013-02-17 15:57:00,
2013-02-17 10:02:00,44.5,24.0,30.40,East,89,2.0,2.0,44,0.00,,---,0.00,VWS V14.01,2013-02-17 16:02:00,
2013-02-17 10:07:00,45.0,23.9,30.40,East,87,2.0,2.0,43,0.00,,---,0.00,VWS V14.01,2013-02-17 16:07:00,
2013-02-17 10:12:00,45.6,23.9,30.40,WSW,258,1.0,1.0,42,0.00,,---,0.00,VWS V14.01,2013-02-17 16:12:00,
2013-02-17 10:17:00,46.1,23.1,30.40,East,97,1.0,2.0,40,0.00,,---,0.00,VWS V14.01,2013-02-17 16:17:00,
2013-02-17 10:22:00,46.1,22.5,30.40,NNE,30,2.0,5.0,39,0.00,,---,0.00,VWS V14.01,2013-02-17 16:22:00,
2013-02-17 10:27:00,46.0,23.6,30.40,East,89,1.0,3.0,41,0.00,,---,0.00,VWS V14.01,2013-02-17 16:27:00,
2013-02-17 10:32:00,46.2,23.2,30.40,East,98,1.0,2.0,40,0.00,,---,0.00,VWS V14.01,2013-02-17 16:32:00,
2013-02-17 10:37:00,46.4,22.8,30.40,ESE,115,1.0,1.0,39,0.00,,---,0.00,VWS V14.01,2013-02-17 16:37:00,
2013-02-17 10:42:00,47.1,24.0,30.40,ESE,105,1.0,4.0,40,0.00,,---,0.00,VWS V14.01,2013-02-17 16:42:00,
2013-02-17 10:47:00,47.1,22.8,30.40,ENE,72,1.0,2.0,38,0.00,,---,0.00,VWS V14.01,2013-02-17 16:47:00,
2013-02-17 10:52:00,47.1,24.0,30.40,NE,50,0.0,3.0,40,0.00,,---,0.00,VWS V14.01,2013-02-17 16:52:00,
2013-02-17 10:57:00,47.4,22.5,30.39,ESE,112,2.0,3.0,37,0.00,,---,0.00,VWS V14.01,2013-02-17 16:57:00,
2013-02-17 11:02:00,47.7,23.4,30.39,ESE,110,3.0,4.0,38,0.00,,---,0.00,VWS V14.01,2013-02-17 17:02:00,
2013-02-17 11:07:00,47.9,22.9,30.39,ESE,103,2.0,3.0,37,0.00,,---,0.00,VWS V14.01,2013-02-17 17:07:00,
2013-02-17 11:12:00,48.3,23.3,30.38,ESE,110,1.0,3.0,37,0.00,,---,0.00,VWS V14.01,2013-02-17 17:12:00,
2013-02-17 11:17:00,48.9,22.5,30.37,ENE,69,1.0,3.0,35,0.00,,---,0.00,VWS V14.01,2013-02-17 17:17:00,
2013-02-17 11:22:00,48.9,23.1,30.37,East,96,2.0,3.0,36,0.00,,---,0.00,VWS V14.01,2013-02-17 17:22:00,
2013-02-17 11:27:00,49.5,23.7,30.36,SW,224,2.0,2.0,36,0.00,,---,0.00,VWS V14.01,2013-02-17 17:27:00,
2013-02-17 11:32:00,50.3,23.7,30.36,SSW,207,1.0,5.0,35,0.00,,---,0.00,VWS V14.01,2013-02-17 17:32:00,
2013-02-17 11:37:00,50.3,23.0,30.36,SE,136,1.0,2.0,34,0.00,,---,0.00,VWS V14.01,2013-02-17 17:37:00,
2013-02-17 11:42:00,50.8,24.8,30.36,WNW,290,3.0,4.0,36,0.00,,---,0.00,VWS V14.01,2013-02-17 17:42:00,
2013-02-17 11:47:00,50.6,24.6,30.36,SW,218,2.0,3.0,36,0.00,,---,0.00,VWS V14.01,2013-02-17 17:47:00,
2013-02-17 11:52:00,51.2,24.5,30.35,SW,233,4.0,4.0,35,0.00,,---,0.00,VWS V14.01,2013-02-17 17:52:00,
2013-02-17 11:57:00,51.4,24.0,30.35,SSE,160,2.0,4.0,34,0.00,,---,0.00,VWS V14.01,2013-02-17 17:57:00,
2013-02-17 12:02:00,51.5,24.8,30.35,SE,141,1.0,3.0,35,0.00,,---,0.00,VWS V14.01,2013-02-17 18:02:00,
2013-02-17 12:07:00,51.3,23.9,30.34,ESE,122,2.0,3.0,34,0.00,,---,0.00,VWS V14.01,2013-02-17 18:07:00,
2013-02-17 12:12:00,51.6,24.9,30.34,ENE,68,1.0,4.0,35,0.00,,---,0.00,VWS V14.01,2013-02-17 18:12:00,
2013-02-17 12:17:00,51.5,24.8,30.34,SE,145,0.0,1.0,35,0.00,,---,0.00,VWS V14.01,2013-02-17 18:17:00,
2013-02-17 12:22:00,51.9,24.4,30.33,NE,52,2.0,4.0,34,0.00,,---,0.00,VWS V14.01,2013-02-17 18:22:00,
2013-02-17 12:27:00,51.6,23.5,30.33,WNW,302,1.0,2.0,33,0.00,,---,0.00,VWS V14.01,2013-02-17 18:27:00,
2013-02-17 12:32:00,51.8,25.0,30.33,SE,138,0.0,1.0,35,0.00,,---,0.00,VWS V14.01,2013-02-17 18:32:00,
2013-02-17 12:37:00,52.8,25.9,30.33,WSW,243,1.0,2.0,35,0.00,,---,0.00,VWS V14.01,2013-02-17 18:37:00,
2013-02-17 12:42:00,53.5,25.1,30.32,WSW,253,0.0,1.0,33,0.00,,---,0.00,VWS V14.01,2013-02-17 18:42:00,
2013-02-17 12:47:00,53.8,23.9,30.32,ESE,113,2.0,4.0,31,0.00,,---,0.00,VWS V14.01,2013-02-17 18:47:00,
2013-02-17 12:52:00,54.0,25.6,30.32,NNW,328,2.0,2.0,33,0.00,,---,0.00,VWS V14.01,2013-02-17 18:52:00,
2013-02-17 12:57:00,54.2,25.0,30.32,West,274,1.0,3.0,32,0.00,,---,0.00,VWS V14.01,2013-02-17 18:57:00,
2013-02-17 13:02:00,54.3,24.3,30.32,West,263,3.0,5.0,31,0.00,,---,0.00,VWS V14.01,2013-02-17 19:02:00,
2013-02-17 13:07:00,54.0,24.1,30.32,ENE,73,3.0,3.0,31,0.00,,---,0.00,VWS V14.01,2013-02-17 19:07:00,
2013-02-17 13:12:00,54.1,24.9,30.31,SSW,205,1.0,2.0,32,0.00,,---,0.00,VWS V14.01,2013-02-17 19:12:00,
2013-02-17 13:17:00,55.2,25.9,30.31,East,80,2.0,3.0,32,0.00,,---,0.00,VWS V14.01,2013-02-17 19:17:00,
2013-02-17 13:22:00,55.2,25.9,30.31,ENE,63,3.0,3.0,32,0.00,,---,0.00,VWS V14.01,2013-02-17 19:22:00,
2013-02-17 13:27:00,55.0,24.9,30.31,NNE,25,2.0,2.0,31,0.00,,---,0.00,VWS V14.01,2013-02-17 19:27:00,
2013-02-17 13:32:00,55.4,24.5,30.31,NNW,346,1.0,1.0,30,0.00,,---,0.00,VWS V14.01,2013-02-17 19:32:00,
2013-02-17 13:37:00,55.7,24.8,30.31,NNW,338,2.0,3.0,30,0.00,,---,0.00,VWS V14.01,2013-02-17 19:37:00,
2013-02-17 13:42:00,55.7,25.5,30.30,NW,315,1.0,3.0,31,0.00,,---,0.00,VWS V14.01,2013-02-17 19:42:00,
2013-02-17 13:48:00,55.8,26.4,30.30,NE,44,2.0,3.0,32,0.00,,---,0.00,VWS V14.01,2013-02-17 19:48:00,
2013-02-17 13:53:00,56.2,26.0,30.30,WNW,303,0.0,2.0,31,0.00,,---,0.00,VWS V14.01,2013-02-17 19:53:00,
2013-02-17 13:58:00,56.6,25.5,30.30,WSW,255,3.0,4.0,30,0.00,,---,0.00,VWS V14.01,2013-02-17 19:58:00,
2013-02-17 14:04:00,56.2,26.8,30.30,SE,145,3.0,3.0,32,0.00,,---,0.00,VWS V14.01,2013-02-17 20:04:00,
2013-02-17 14:09:00,56.7,26.4,30.30,West,274,0.0,1.0,31,0.00,,---,0.00,VWS V14.01,2013-02-17 20:09:00,
2013-02-17 14:15:00,57.0,25.9,30.29,West,264,0.0,0.0,30,0.00,,---,0.00,VWS V14.01,2013-02-17 20:15:00,
2013-02-17 14:20:00,56.9,25.8,30.29,NNE,20,1.0,2.0,30,0.00,,---,0.00,VWS V14.01,2013-02-17 20:20:00,
2013-02-17 14:25:00,57.4,27.0,30.29,SSW,193,1.0,2.0,31,0.00,,---,0.00,VWS V14.01,2013-02-17 20:25:00,
2013-02-17 14:30:00,57.5,26.3,30.29,SW,220,3.0,3.0,30,0.00,,---,0.00,VWS V14.01,2013-02-17 20:30:00,
2013-02-17 14:35:00,57.6,26.4,30.29,WSW,255,1.0,2.0,30,0.00,,---,0.00,VWS V14.01,2013-02-17 20:35:00,
2013-02-17 14:40:00,57.4,27.0,30.28,NE,36,2.0,3.0,31,0.00,,---,0.00,VWS V14.01,2013-02-17 20:40:00,
2013-02-17 14:45:00,57.5,27.1,30.28,NNW,336,1.0,1.0,31,0.00,,---,0.00,VWS V14.01,2013-02-17 20:45:00,
2013-02-17 14:50:00,57.5,26.3,30.28,ENE,71,0.0,1.0,30,0.00,,---,0.00,VWS V14.01,2013-02-17 20:50:00,
2013-02-17 14:55:00,57.5,26.3,30.28,NE,53,0.0,0.0,30,0.00,,---,0.00,VWS V14.01,2013-02-17 20:55:00,
2013-02-17 15:00:00,57.8,27.4,30.28,ESE,113,0.0,1.0,31,0.00,,---,0.00,VWS V14.01,2013-02-17 21:00:00,
2013-02-17 15:05:00,57.7,28.1,30.28,ESE,108,1.0,2.0,32,0.00,,---,0.00,VWS V14.01,2013-02-17 21:05:00,
2013-02-17 15:10:00,57.7,28.1,30.28,NE,52,1.0,3.0,32,0.00,,---,0.00,VWS V14.01,2013-02-17 21:10:00,
2013-02-17 15:15:00,57.5,27.9,30.28,SSW,205,1.0,2.0,32,0.00,,---,0.00,VWS V14.01,2013-02-17 21:15:00,
2013-02-17 15:20:00,57.7,28.8,30.28,South,172,3.0,4.0,33,0.00,,---,0.00,VWS V14.01,2013-02-17 21:20:00,
2013-02-17 15:25:00,57.8,28.9,30.28,South,184,3.0,3.0,33,0.00,,---,0.00,VWS V14.01,2013-02-17 21:25:00,
2013-02-17 15:30:00,57.2,29.1,30.28,SSW,195,3.0,4.0,34,0.00,,---,0.00,VWS V14.01,2013-02-17 21:30:00,
2013-02-17 15:35:00,56.7,28.7,30.28,East,90,2.0,4.0,34,0.00,,---,0.00,VWS V14.01,2013-02-17 21:35:00,
2013-02-17 15:40:00,56.9,29.5,30.27,East,79,1.0,3.0,35,0.00,,---,0.00,VWS V14.01,2013-02-17 21:40:00,
2013-02-17 15:45:00,56.9,29.5,30.28,East,93,1.0,2.0,35,0.00,,---,0.00,VWS V14.01,2013-02-17 21:45:00,
2013-02-17 15:50:00,56.3,29.0,30.28,SE,127,1.0,5.0,35,0.00,,---,0.00,VWS V14.01,2013-02-17 21:50:00,
2013-02-17 15:55:00,56.5,29.2,30.28,East,100,4.0,4.0,35,0.00,,---,0.00,VWS V14.01,2013-02-17 21:55:00,
2013-02-17 16:00:00,56.8,29.5,30.27,SSE,150,3.0,4.0,35,0.00,,---,0.00,VWS V14.01,2013-02-17 22:00:00,
2013-02-17 16:05:00,56.4,28.4,30.27,East,87,2.0,6.0,34,0.00,,---,0.00,VWS V14.01,2013-02-17 22:05:00,
2013-02-17 16:10:00,55.8,29.9,30.28,SSE,155,1.0,3.0,37,0.00,,---,0.00,VWS V14.01,2013-02-17 22:10:00,
2013-02-17 16:15:00,56.6,32.6,30.27,West,267,0.0,0.0,40,0.00,,---,0.00,VWS V14.01,2013-02-17 22:15:00,
2013-02-17 16:20:00,56.9,32.8,30.27,WSW,252,2.0,2.0,40,0.00,,---,0.00,VWS V14.01,2013-02-17 22:20:00,
2013-02-17 16:25:00,56.5,31.9,30.27,SSW,212,1.0,3.0,39,0.00,,---,0.00,VWS V14.01,2013-02-17 22:25:00,
2013-02-17 16:30:00,56.3,32.3,30.27,South,174,0.0,1.0,40,0.00,,---,0.00,VWS V14.01,2013-02-17 22:30:00,
2013-02-17 16:35:00,56.1,31.5,30.27,WSW,240,0.0,3.0,39,0.00,,---,0.00,VWS V14.01,2013-02-17 22:35:00,
2013-02-17 16:40:00,55.7,31.8,30.27,ENE,68,3.0,3.0,40,0.00,,---,0.00,VWS V14.01,2013-02-17 22:40:00,
2013-02-17 16:45:00,55.3,32.0,30.27,SSW,200,1.0,1.0,41,0.00,,---,0.00,VWS V14.01,2013-02-17 22:45:00,
2013-02-17 16:50:00,55.4,31.5,30.27,WSW,237,2.0,2.0,40,0.00,,---,0.00,VWS V14.01,2013-02-17 22:50:00,
2013-02-17 16:55:00,54.9,31.7,30.28,WSW,252,3.0,4.0,41,0.00,,---,0.00,VWS V14.01,2013-02-17 22:55:00,
2013-02-17 17:00:00,54.5,31.9,30.28,SSE,149,2.0,3.0,42,0.00,,---,0.00,VWS V14.01,2013-02-17 23:00:00,
2013-02-17 17:05:00,54.1,31.5,30.28,West,276,2.0,4.0,42,0.00,,---,0.00,VWS V14.01,2013-02-17 23:05:00,
2013-02-17 17:10:00,53.7,31.8,30.28,West,280,0.0,1.0,43,0.00,,---,0.00,VWS V14.01,2013-02-17 23:10:00,
2013-02-17 17:15:00,53.3,32.0,30.28,SSE,160,1.0,1.0,44,0.00,,---,0.00,VWS V14.01,2013-02-17 23:15:00,
2013-02-17 17:20:00,52.3,31.6,30.28,WSW,255,1.0,1.0,45,0.00,,---,0.00,VWS V14.01,2013-02-17 23:20:00,
2013-02-17 17:25:00,51.5,32.0,30.28,South,184,1.0,2.0,47,0.00,,---,0.00,VWS V14.01,2013-02-17 23:25:00,
2013-02-17 17:30:00,50.9,31.9,30.28,SW,236,1.0,1.0,48,0.00,,---,0.00,VWS V14.01,2013-02-17 23:30:00,
2013-02-17 17:35:00,50.4,32.0,30.28,SW,229,0.0,1.0,49,0.00,,---,0.00,VWS V14.01,2013-02-17 23:35:00,
2013-02-17 17:40:00,49.8,31.9,30.28,SW,215,0.0,1.0,50,0.00,,---,0.00,VWS V14.01,2013-02-17 23:40:00,
2013-02-17 17:45:00,49.4,32.0,30.28,NW,305,2.0,2.0,51,0.00,,---,0.00,VWS V14.01,2013-02-17 23:45:00,
2013-02-17 17:50:00,49.0,31.7,30.28,SSW,203,0.0,0.0,51,0.00,,---,0.00,VWS V14.01,2013-02-17 23:50:00,
2013-02-17 17:56:00,48.6,32.3,30.28,South,190,0.0,0.0,53,0.00,,---,0.00,VWS V14.01,2013-02-17 23:56:00,
2013-02-17 18:01:00,48.2,31.9,30.28,East,83,0.0,0.0,53,0.00,,---,0.00,VWS V14.01,2013-02-18 00:01:00,
2013-02-17 18:06:00,47.9,32.1,30.28,West,259,0.0,0.0,54,0.00,,---,0.00,VWS V14.01,2013-02-18 00:06:00,
2013-02-17 18:11:00,47.5,32.2,30.28,WSW,239,0.0,1.0,55,0.00,,---,0.00,VWS V14.01,2013-02-18 00:11:00,
2013-02-17 18:16:00,47.2,32.3,30.28,WSW,240,0.0,1.0,56,0.00,,---,0.00,VWS V14.01,2013-02-18 00:16:00,
2013-02-17 18:21:00,46.7,32.3,30.28,WSW,240,0.0,0.0,57,0.00,,---,0.00,VWS V14.01,2013-02-18 00:21:00,
2013-02-17 18:27:00,46.2,32.7,30.28,South,186,0.0,0.0,59,0.00,,---,0.00,VWS V14.01,2013-02-18 00:27:00,
2013-02-17 18:32:00,45.8,32.3,30.28,South,186,0.0,0.0,59,0.00,,---,0.00,VWS V14.01,2013-02-18 00:32:00,
2013-02-17 18:37:00,45.5,32.8,30.28,South,186,0.0,0.0,61,0.00,,---,0.00,VWS V14.01,2013-02-18 00:37:00,
2013-02-17 18:42:00,45.1,32.9,30.28,South,186,0.0,0.0,62,0.00,,---,0.00,VWS V14.01,2013-02-18 00:42:00,
2013-02-17 18:47:00,44.8,32.6,30.28,SSW,198,0.0,0.0,62,0.00,,---,0.00,VWS V14.01,2013-02-18 00:47:00,
2013-02-17 18:52:00,44.6,32.8,30.29,SSW,200,0.0,1.0,63,0.00,,---,0.00,VWS V14.01,2013-02-18 00:52:00,
2013-02-17 18:57:00,44.5,32.7,30.29,SSW,201,0.0,0.0,63,0.00,,---,0.00,VWS V14.01,2013-02-18 00:57:00,
2013-02-17 19:02:00,44.2,32.8,30.29,WNW,300,0.0,1.0,64,0.00,,---,0.00,VWS V14.01,2013-02-18 01:02:00,
2013-02-17 19:07:00,44.3,32.9,30.29,South,170,0.0,0.0,64,0.00,,---,0.00,VWS V14.01,2013-02-18 01:07:00,
2013-02-17 19:12:00,44.1,32.7,30.29,South,170,0.0,0.0,64,0.00,,---,0.00,VWS V14.01,2013-02-18 01:12:00,
2013-02-17 19:17:00,43.7,32.3,30.29,South,170,0.0,0.0,64,0.00,,---,0.00,VWS V14.01,2013-02-18 01:17:00,
2013-02-17 19:22:00,43.5,32.5,30.29,South,174,0.0,0.0,65,0.00,,---,0.00,VWS V14.01,2013-02-18 01:22:00,
2013-02-17 19:28:00,43.3,32.7,30.29,South,174,0.0,0.0,66,0.00,,---,0.00,VWS V14.01,2013-02-18 01:28:00,
2013-02-17 19:33:00,43.3,32.7,30.29,ESE,122,0.0,0.0,66,0.00,,---,0.00,VWS V14.01,2013-02-18 01:33:00,
2013-02-17 19:38:00,43.1,32.5,30.29,ESE,122,0.0,0.0,66,0.00,,---,0.00,VWS V14.01,2013-02-18 01:38:00,
2013-02-17 19:43:00,43.0,32.8,30.29,ESE,122,0.0,0.0,67,0.00,,---,0.00,VWS V14.01,2013-02-18 01:43:00,
2013-02-17 19:48:00,42.8,32.6,30.29,ESE,122,0.0,0.0,67,0.00,,---,0.00,VWS V14.01,2013-02-18 01:48:00,
2013-02-17 19:53:00,42.5,32.7,30.30,ESE,122,0.0,0.0,68,0.00,,---,0.00,VWS V14.01,2013-02-18 01:53:00,
2013-02-17 19:58:00,42.2,32.8,30.30,ESE,122,0.0,0.0,69,0.00,,---,0.00,VWS V14.01,2013-02-18 01:58:00,
2013-02-17 20:04:00,41.9,32.8,30.30,ESE,122,0.0,0.0,70,0.00,,---,0.00,VWS V14.01,2013-02-18 02:04:00,
2013-02-17 20:09:00,41.6,32.9,30.30,ESE,123,0.0,0.0,71,0.00,,---,0.00,VWS V14.01,2013-02-18 02:09:00,
2013-02-17 20:14:00,41.5,33.2,30.30,ESE,123,0.0,0.0,72,0.00,,---,0.00,VWS V14.01,2013-02-18 02:14:00,
2013-02-17 20:20:00,41.3,33.0,30.30,SE,127,0.0,0.0,72,0.00,,---,0.00,VWS V14.01,2013-02-18 02:20:00,
2013-02-17 20:26:00,41.1,32.8,30.30,SE,127,0.0,0.0,72,0.00,,---,0.00,VWS V14.01,2013-02-18 02:26:00,
2013-02-17 20:31:00,41.2,33.2,30.30,NNW,333,0.0,0.0,73,0.00,,---,0.00,VWS V14.01,2013-02-18 02:31:00,
2013-02-17 20:36:00,41.1,33.1,30.31,NNW,333,0.0,0.0,73,0.00,,---,0.00,VWS V14.01,2013-02-18 02:36:00,
2013-02-17 20:42:00,40.8,33.2,30.31,NNW,333,0.0,0.0,74,0.00,,---,0.00,VWS V14.01,2013-02-18 02:42:00,
2013-02-17 20:47:00,40.6,33.0,30.31,ESE,107,1.0,1.0,74,0.00,,---,0.00,VWS V14.01,2013-02-18 02:47:00,
2013-02-17 20:53:00,40.7,33.1,30.31,ESE,108,0.0,0.0,74,0.00,,---,0.00,VWS V14.01,2013-02-18 02:53:00,
2013-02-17 20:58:00,40.8,33.5,30.31,ESE,108,0.0,0.0,75,0.00,,---,0.00,VWS V14.01,2013-02-18 02:58:00,
2013-02-17 21:03:00,40.7,33.4,30.31,ESE,108,0.0,0.0,75,0.00,,---,0.00,VWS V14.01,2013-02-18 03:03:00,
2013-02-17 21:08:00,40.5,33.2,30.31,ESE,108,0.0,0.0,75,0.00,,---,0.00,VWS V14.01,2013-02-18 03:08:00,
2013-02-17 21:13:00,40.3,33.3,30.31,ESE,108,0.0,0.0,76,0.00,,---,0.00,VWS V14.01,2013-02-18 03:13:00,
2013-02-17 21:18:00,40.0,33.1,30.31,ESE,108,0.0,0.0,76,0.00,,---,0.00,VWS V14.01,2013-02-18 03:18:00,
2013-02-17 21:23:00,39.7,33.1,30.31,ESE,108,0.0,0.0,77,0.00,,---,0.00,VWS V14.01,2013-02-18 03:23:00,
2013-02-17 21:29:00,39.6,33.3,30.31,NNW,333,0.0,2.0,78,0.00,,---,0.00,VWS V14.01,2013-02-18 03:29:00,
2013-02-17 21:34:00,39.7,33.7,30.31,NNW,333,0.0,0.0,79,0.00,,---,0.00,VWS V14.01,2013-02-18 03:34:00,
2013-02-17 21:40:00,39.7,33.7,30.31,NNW,333,0.0,0.0,79,0.00,,---,0.00,VWS V14.01,2013-02-18 03:40:00,
2013-02-17 21:46:00,39.7,33.7,30.31,NNW,333,0.0,0.0,79,0.00,,---,0.00,VWS V14.01,2013-02-18 03:46:00,
2013-02-17 21:52:00,39.6,33.6,30.31,NNW,333,0.0,0.0,79,0.00,,---,0.00,VWS V14.01,2013-02-18 03:52:00,
2013-02-17 21:57:00,39.6,33.6,30.31,NNW,328,1.0,2.0,79,0.00,,---,0.00,VWS V14.01,2013-02-18 03:57:00,
2013-02-17 22:02:00,39.7,34.0,30.31,NNW,328,0.0,0.0,80,0.00,,---,0.00,VWS V14.01,2013-02-18 04:02:00,
2013-02-17 22:07:00,39.6,33.6,30.31,NNW,328,0.0,0.0,79,0.00,,---,0.00,VWS V14.01,2013-02-18 04:07:00,
2013-02-17 22:12:00,39.5,33.8,30.31,NNW,328,0.0,0.0,80,0.00,,---,0.00,VWS V14.01,2013-02-18 04:12:00,
2013-02-17 22:17:00,39.3,33.7,30.31,NNW,328,0.0,0.0,80,0.00,,---,0.00,VWS V14.01,2013-02-18 04:17:00,
2013-02-17 22:23:00,39.3,34.0,30.31,NNW,328,0.0,0.0,81,0.00,,---,0.00,VWS V14.01,2013-02-18 04:23:00,
2013-02-17 22:28:00,39.3,34.0,30.31,NNW,328,0.0,0.0,81,0.00,,---,0.00,VWS V14.01,2013-02-18 04:28:00,
2013-02-17 22:33:00,39.3,34.0,30.31,NNW,328,0.0,0.0,81,0.00,,---,0.00,VWS V14.01,2013-02-18 04:33:00,
2013-02-17 22:38:00,39.3,34.0,30.31,NNW,328,0.0,0.0,81,0.00,,---,0.00,VWS V14.01,2013-02-18 04:38:00,
2013-02-17 22:44:00,39.6,34.3,30.31,NNW,328,0.0,0.0,81,0.00,,---,0.00,VWS V14.01,2013-02-18 04:44:00,
2013-02-17 22:50:00,39.5,34.2,30.31,NNW,328,0.0,0.0,81,0.00,,---,0.00,VWS V14.01,2013-02-18 04:50:00,
2013-02-17 22:55:00,39.4,34.1,30.30,NNW,328,0.0,0.0,81,0.00,,---,0.00,VWS V14.01,2013-02-18 04:55:00,
2013-02-17 23:00:00,39.1,33.8,30.30,NNW,329,0.0,0.0,81,0.00,,---,0.00,VWS V14.01,2013-02-18 05:00:00,
2013-02-17 23:02:00,39.1,33.8,30.30,NNW,328,0.0,0.0,81,0.00,,---,0.00,VWS V14.01,2013-02-18 05:02:00,
2013-02-17 23:03:00,39.0,33.7,30.30,NNW,329,0.0,0.0,81,0.00,,---,0.00,VWS V14.01,2013-02-18 05:03:00,
2013-02-17 23:04:00,39.0,34.0,30.30,NNW,328,0.0,0.0,82,0.00,,---,0.00,VWS V14.01,2013-02-18 05:04:00,
2013-02-17 23:09:00,38.8,33.8,30.30,NNW,328,0.0,0.0,82,0.00,,---,0.00,VWS V14.01,2013-02-18 05:09:00,
2013-02-17 23:14:00,38.7,34.0,30.30,NNW,328,0.0,0.0,83,0.00,,---,0.00,VWS V14.01,2013-02-18 05:14:00,
2013-02-17 23:19:00,38.6,33.9,30.30,NNW,328,0.0,0.0,83,0.00,,---,0.00,VWS V14.01,2013-02-18 05:19:00,
2013-02-17 23:25:00,38.5,34.1,30.30,NNW,328,0.0,0.0,84,0.00,,---,0.00,VWS V14.01,2013-02-18 05:25:00,
2013-02-17 23:30:00,38.8,34.4,30.30,NNW,329,0.0,0.0,84,0.00,,---,0.00,VWS V14.01,2013-02-18 05:30:00,
2013-02-17 23:35:00,38.9,34.5,30.30,NNW,328,0.0,0.0,84,0.00,,---,0.00,VWS V14.01,2013-02-18 05:35:00,
2013-02-17 23:40:00,38.9,34.5,30.30,NNW,328,0.0,0.0,84,0.00,,---,0.00,VWS V14.01,2013-02-18 05:40:00,
2013-02-17 23:46:00,38.9,34.5,30.30,NNW,329,0.0,0.0,84,0.00,,---,0.00,VWS V14.01,2013-02-18 05:46:00,
2013-02-17 23:51:00,39.1,34.7,30.29,NNW,328,0.0,0.0,84,0.00,,---,0.00,VWS V14.01,2013-02-18 05:51:00,
2013-02-17 23:57:00,39.3,34.9,30.29,NNW,328,0.0,0.0,84,0.00,,---,0.00,VWS V14.01,2013-02-18 05:57:00,